KD5UIG Weather Reports


Display with metric or nautical units.
time (UTC)temp
F
wind
direction
speed
MPH
gust
MPH
rain 1hr
in
rain 24hr
in
rain mn
in
humidity
%
barometer
mb
20210801155118 86 338 3.0 8.0 0.00 0.00 0.00 70 1016.9
20210801154611 87 319 2.0 5.0 0.00 0.00 0.00 70 1016.9
20210801154107 87 235 1.0 4.0 0.00 0.00 0.00 70 1016.8
20210801153556 87 5 2.0 5.0 0.00 0.00 0.00 69 1016.9
20210801153109 87 344 2.0 7.0 0.00 0.00 0.00 70 1016.8
20210801152633 86 308 2.0 6.0 0.00 0.00 0.00 70 1016.9
20210801152113 87 350 2.0 6.0 0.00 0.00 0.00 71 1017.0
20210801151614 85 46 3.0 6.0 0.00 0.00 0.00 72 1017.0
20210801151059 85 325 3.0 6.0 0.00 0.00 0.00 72 1017.0
20210801150612 85 355 2.0 6.0 0.00 0.00 0.00 73 1016.9
20210801150106 84 292 3.0 6.0 0.00 0.00 0.00 74 1016.9
20210801145611 84 309 2.0 4.0 0.00 0.00 0.00 75 1016.9
20210801145058 84 304 2.0 4.0 0.00 0.00 0.00 77 1017.0
20210801144600 83 342 1.0 4.0 0.00 0.00 0.00 77 1017.1
20210801144134 83 291 2.0 5.0 0.00 0.00 0.00 78 1017.2
20210801143615 84 267 2.0 6.0 0.00 0.00 0.00 77 1017.2
20210801143059 85 24 2.0 7.0 0.00 0.00 0.00 75 1017.1
20210801142604 85 271 3.0 7.0 0.00 0.00 0.00 75 1017.1
20210801142104 84 268 2.0 5.0 0.00 0.00 0.00 76 1017.2
20210801141600 84 297 2.0 4.0 0.00 0.00 0.00 77 1017.1
20210801141139 84 299 2.0 4.0 0.00 0.00 0.00 77 1017.0
20210801140621 84 267 1.0 4.0 0.00 0.00 0.00 76 1016.8
20210801140100 85 246 1.0 4.0 0.00 0.00 0.00 76 1016.7
20210801135601 85 234 1.0 3.0 0.00 0.00 0.00 75 1016.6
20210801135110 85 225 1.0 4.0 0.00 0.00 0.00 75 1016.4
20210801134608 85 200 2.0 4.0 0.00 0.00 0.00 74 1016.3
20210801134103 85 203 2.0 7.0 0.00 0.00 0.00 75 1016.2
20210801133633 85 172 3.0 7.0 0.00 0.00 0.00 75 1016.1
20210801133125 85 197 2.0 5.0 0.00 0.00 0.00 75 1016.0
20210801132604 85 201 2.0 4.0 0.00 0.00 0.00 77 1015.9
20210801132057 84 208 1.0 4.0 0.00 0.00 0.00 78 1015.8
20210801131559 83 192 1.0 3.0 0.00 0.00 0.00 78 1015.7
20210801131103 83 207 1.0 4.0 0.00 0.00 0.00 80 1015.7
20210801130601 82 181 1.0 4.0 0.00 0.00 0.00 80 1015.5
20210801130131 82 242 0.0 3.0 0.00 0.00 0.00 81 1015.5
20210801125635 81 175 1.0 2.0 0.00 0.00 0.00 82 1015.5
20210801125121 81 148 0.0 2.0 0.00 0.00 0.00 82 1015.5
20210801124633 81 175 0.0 2.0 0.00 0.00 0.00 83 1015.4
20210801124115 80 157 0.0 1.0 0.00 0.00 0.00 84 1015.4
20210801123559 80 157 0.0 2.0 0.00 0.00 0.00 84 1015.4
20210801123056 79 148 0.0 1.0 0.00 0.00 0.00 85 1015.4
20210801122626 79 148 0.0 1.0 0.00 0.00 0.00 85 1015.3
20210801122058 78 148 0.0 1.0 0.00 0.00 0.00 86 1015.4
20210801121623 78 148 0.0 1.0 0.00 0.00 0.00 85 1015.4
20210801121103 78 148 0.0 2.0 0.00 0.00 0.00 85 1015.4
20210801120601 78 148 1.0 2.0 0.00 0.00 0.00 85 1015.4
20210801120112 78 163 0.0 1.0 0.00 0.00 0.00 86 1015.4
20210801115626 78 163 0.0 1.0 0.00 0.00 0.00 86 1015.4
20210801115104 78 163 0.0 0.0 0.00 0.00 0.00 86 1015.5
20210801114554 77 163 0.0 0.0 0.00 0.00 0.00 86 1015.5
20210801114108 77 163 0.0 0.0 0.00 0.00 0.00 86 1015.4
20210801113607 77 163 0.0 0.0 0.00 0.00 0.00 87 1015.3
20210801113101 77 163 0.0 0.0 0.00 0.00 0.00 87 1015.2
20210801112558 77 163 0.0 0.0 0.00 0.00 0.00 88 1015.2
20210801112119 76 163 0.0 1.0 0.00 0.00 0.00 88 1015.1
20210801111557 77 163 0.0 1.0 0.00 0.00 0.00 87 1015.0
20210801111137 77 163 0.0 0.0 0.00 0.00 0.00 87 1015.0
20210801110613 77 163 0.0 1.0 0.00 0.00 0.00 85 1015.0
20210801110101 78 163 0.0 1.0 0.00 0.00 0.00 84 1014.9
20210801105625 79 163 0.0 1.0 0.00 0.00 0.00 84 1014.9
20210801105132 79 163 0.0 1.0 0.00 0.00 0.00 83 1015.0
20210801104605 79 163 0.0 1.0 0.00 0.00 0.00 83 1014.9
20210801104112 79 163 0.0 2.0 0.00 0.00 0.00 84 1014.9
20210801103602 78 163 0.0 1.0 0.00 0.00 0.00 85 1015.0
20210801103115 78 163 0.0 1.0 0.00 0.00 0.00 85 1015.0
20210801102602 78 163 0.0 1.0 0.00 0.00 0.00 84 1015.0
20210801102131 79 163 0.0 1.0 0.00 0.00 0.00 83 1015.0
20210801101608 79 163 0.0 1.0 0.00 0.00 0.00 82 1015.1
20210801101106 79 163 0.0 1.0 0.00 0.00 0.00 82 1015.1
20210801100608 79 163 0.0 0.0 0.00 0.00 0.00 82 1015.2
20210801100127 79 163 0.0 0.0 0.00 0.00 0.00 82 1015.2
20210801095614 80 163 0.0 1.0 0.00 0.00 0.00 81 1015.0
20210801095112 80 163 0.0 1.0 0.00 0.00 0.00 80 1014.9
20210801094556 80 163 0.0 2.0 0.00 0.00 0.00 81 1014.9
20210801094121 80 163 1.0 2.0 0.00 0.00 0.00 81 1015.0
20210801093614 80 184 1.0 2.0 0.00 0.00 0.00 80 1015.0
20210801093115 80 184 0.0 2.0 0.00 0.00 0.00 80 1014.9
20210801092609 80 184 0.0 2.0 0.00 0.00 0.00 80 1014.9
20210801092111 80 184 1.0 2.0 0.00 0.00 0.00 80 1014.9
20210801091610 80 184 0.0 1.0 0.00 0.00 0.00 80 1014.9
20210801091119 80 184 0.0 1.0 0.00 0.00 0.00 80 1014.8
20210801090601 80 184 0.0 1.0 0.00 0.00 0.00 80 1014.7
20210801090059 80 184 0.0 2.0 0.00 0.00 0.00 80 1014.7
20210801085615 80 184 1.0 2.0 0.00 0.00 0.00 80 1014.7
20210801085059 80 184 0.0 2.0 0.00 0.00 0.00 80 1014.7
20210801084621 80 184 1.0 2.0 0.00 0.00 0.00 79 1014.6
20210801084121 80 184 1.0 1.0 0.00 0.00 0.00 79 1014.6
20210801083628 81 184 0.0 2.0 0.00 0.00 0.00 78 1014.5
20210801083132 81 184 0.0 1.0 0.00 0.00 0.00 78 1014.6
20210801082609 81 184 0.0 1.0 0.00 0.00 0.00 78 1014.5
20210801082113 81 184 0.0 1.0 0.00 0.00 0.00 78 1014.6
20210801081601 81 184 0.0 1.0 0.00 0.00 0.00 78 1014.5
20210801081054 81 184 0.0 2.0 0.00 0.00 0.00 77 1014.5
20210801080621 81 184 0.0 2.0 0.00 0.00 0.00 77 1014.6
20210801080059 81 119 0.0 2.0 0.00 0.00 0.00 77 1014.7
20210801075614 81 120 1.0 2.0 0.00 0.00 0.00 77 1014.7
20210801075103 81 119 0.0 1.0 0.00 0.00 0.00 76 1014.7
20210801074559 81 119 0.0 1.0 0.00 0.00 0.00 76 1014.8
20210801074113 82 119 0.0 3.0 0.00 0.00 0.00 76 1014.7
20210801073612 82 119 1.0 3.0 0.00 0.00 0.00 76 1014.8
20210801073113 82 155 1.0 2.0 0.00 0.00 0.00 75 1014.9
20210801072616 82 167 0.0 1.0 0.00 0.00 0.00 75 1014.9
20210801072101 82 167 0.0 2.0 0.00 0.00 0.00 75 1015.0
20210801071600 82 167 0.0 2.0 0.00 0.00 0.00 75 1015.0
20210801071113 82 167 0.0 2.0 0.00 0.00 0.00 75 1014.9
20210801070610 82 167 0.0 2.0 0.00 0.00 0.00 75 1014.8
20210801070117 82 169 0.0 2.0 0.00 0.00 0.00 75 1014.9
20210801065618 82 169 0.0 2.0 0.00 0.00 0.00 74 1015.0
20210801065113 83 167 0.0 2.0 0.00 0.00 0.00 74 1015.0
20210801064618 83 165 1.0 2.0 0.00 0.00 0.00 74 1015.1
20210801064133 83 199 0.0 1.0 0.00 0.00 0.00 74 1015.2
20210801063610 83 199 0.0 2.0 0.00 0.00 0.00 73 1015.3
20210801063058 83 199 0.0 4.0 0.00 0.00 0.00 73 1015.4
20210801062625 83 193 2.0 4.0 0.00 0.00 0.00 73 1015.4
20210801062103 83 197 1.0 4.0 0.00 0.00 0.00 73 1015.4
20210801061556 83 189 1.0 4.0 0.00 0.00 0.00 73 1015.4
20210801061102 83 186 1.0 3.0 0.00 0.00 0.00 73 1015.4
20210801060622 84 186 1.0 3.0 0.00 0.00 0.00 73 1015.3
20210801060106 83 194 1.0 3.0 0.00 0.00 0.00 73 1015.2
20210801055610 84 182 0.0 3.0 0.00 0.00 0.00 73 1015.3
20210801055058 84 201 1.0 3.0 0.00 0.00 0.00 73 1015.3
20210801054601 84 202 0.0 3.0 0.00 0.00 0.00 72 1015.3
20210801054055 84 189 1.0 1.0 0.00 0.00 0.00 72 1015.3
20210801053617 84 189 0.0 1.0 0.00 0.00 0.00 72 1015.3
20210801053121 84 189 0.0 1.0 0.00 0.00 0.00 72 1015.2
20210801052638 84 189 0.0 4.0 0.00 0.00 0.00 71 1015.3
20210801052113 85 188 1.0 4.0 0.00 0.00 0.00 71 1015.3
20210801051605 85 197 0.0 3.0 0.00 0.00 0.00 71 1015.3
20210801051101 85 185 1.0 3.0 0.00 0.00 0.00 71 1015.3
20210801050602 85 112 1.0 3.0 0.00 0.00 0.00 71 1015.2
20210801050115 85 207 1.0 4.0 0.00 0.00 0.00 71 1015.2
20210801045617 85 186 1.0 4.0 0.00 0.00 0.00 71 1015.2
20210801045109 85 192 1.0 4.0 0.00 0.00 0.00 71 1015.2
20210801044612 85 187 1.0 3.0 0.00 0.00 0.00 70 1015.2
20210801044106 86 171 1.0 4.0 0.00 0.00 0.00 71 1015.2
20210801043620 86 184 1.0 4.0 0.00 0.00 0.00 70 1015.1
20210801043105 86 258 1.0 4.0 0.00 0.00 0.00 70 1015.0
20210801042636 86 206 1.0 3.0 0.00 0.00 0.00 70 1015.0
20210801042107 86 160 1.0 2.0 0.00 0.00 0.00 69 1015.1
20210801041614 86 179 1.0 2.0 0.00 0.00 0.00 69 1015.0
20210801041112 86 153 1.0 2.0 0.00 0.00 0.00 69 1015.0
20210801040626 86 156 1.0 2.0 0.00 0.00 0.00 68 1015.0
20210801040115 86 136 1.0 3.0 0.00 0.00 0.00 68 1015.0
20210801035635 86 232 1.0 2.0 0.00 0.00 0.00 67 1015.0
20210801035113 87 170 1.0 2.0 0.00 0.00 0.00 67 1014.9
20210801034555 87 259 0.0 2.0 0.00 0.00 0.00 66 1015.0
20210801034101 87 154 1.0 3.0 0.00 0.00 0.00 66 1015.0
20210801033614 87 148 1.0 3.0 0.00 0.00 0.00 65 1014.7
20210801033118 87 178 1.0 3.0 0.00 0.00 0.00 65 1014.8
20210801032615 87 250 1.0 2.0 0.00 0.00 0.00 65 1014.8
20210801032103 87 221 1.0 3.0 0.00 0.00 0.00 64 1014.7
20210801031605 87 182 1.0 4.0 0.00 0.00 0.00 64 1014.6
20210801031112 88 164 1.0 4.0 0.00 0.00 0.00 64 1014.5
20210801030611 88 184 1.0 2.0 0.00 0.00 0.00 64 1014.4
20210801030103 88 191 1.0 3.0 0.00 0.00 0.00 63 1014.4
20210801025605 88 186 1.0 3.0 0.00 0.00 0.00 63 1014.3
20210801025113 88 152 0.0 2.0 0.00 0.00 0.00 63 1014.2
20210801024623 88 151 1.0 3.0 0.00 0.00 0.00 62 1014.2
20210801024111 89 153 1.0 3.0 0.00 0.00 0.00 62 1014.2
20210801023615 89 146 1.0 2.0 0.00 0.00 0.00 61 1014.1
20210801023057 89 139 1.0 3.0 0.00 0.00 0.00 60 1014.1
20210801022558 90 187 1.0 8.0 0.00 0.00 0.00 59 1014.0
20210801022103 90 159 1.0 4.0 0.00 0.00 0.00 58 1013.9
20210801021606 90 153 1.0 7.0 0.00 0.00 0.00 58 1013.8
20210801021103 90 230 1.0 7.0 0.00 0.00 0.00 57 1013.7
20210801020620 90 221 2.0 5.0 0.00 0.00 0.00 57 1013.8
20210801020058 91 41 1.0 5.0 0.00 0.00 0.00 56 1013.8
20210801015627 91 205 1.0 4.0 0.00 0.00 0.00 56 1013.6
20210801015107 91 142 1.0 3.0 0.00 0.00 0.00 55 1013.6
20210801014606 91 115 1.0 5.0 0.00 0.00 0.00 55 1013.6
20210801014058 92 101 1.0 8.0 0.00 0.00 0.00 54 1013.6
20210801013609 92 235 3.0 8.0 0.00 0.00 0.00 53 1013.5
20210801013123 92 80 1.0 3.0 0.00 0.00 0.00 53 1013.5
20210801012559 92 136 1.0 4.0 0.00 0.00 0.00 53 1013.5
20210801012110 92 150 1.0 4.0 0.00 0.00 0.00 52 1013.6
20210801011601 93 147 1.0 3.0 0.00 0.00 0.00 51 1013.6
20210801011113 93 134 1.0 2.0 0.00 0.00 0.00 50 1013.6
20210801010616 94 144 0.0 2.0 0.00 0.00 0.00 48 1013.7
20210801010106 94 143 0.0 2.0 0.00 0.00 0.00 48 1013.6
20210801005557 95 143 0.0 1.0 0.00 0.00 0.00 48 1013.7
20210801005111 95 143 0.0 2.0 0.00 0.00 0.00 48 1013.6
20210801004616 96 143 0.0 3.0 0.00 0.00 0.00 47 1013.6
20210801004111 96 143 0.0 2.0 0.00 0.00 0.00 47 1013.6
20210801003559 96 143 1.0 3.0 0.00 0.00 0.00 47 1013.5
20210801003130 97 179 0.0 3.0 0.00 0.00 0.00 45 1013.6
20210801002558 97 157 0.0 2.0 0.00 0.00 0.00 45 1013.6
20210801002108 97 226 1.0 3.0 0.00 0.00 0.00 43 1013.6
20210801001604 98 169 1.0 3.0 0.00 0.00 0.00 45 1013.6
20210801001123 98 104 1.0 4.0 0.00 0.00 0.00 45 1013.6
20210801000600 98 139 1.0 5.0 0.00 0.00 0.00 44 1013.5
20210801000054 98 182 1.0 5.0 0.00 0.00 0.00 44 1013.6
20210731235556 98 149 2.0 4.0 0.00 0.00 0.00 43 1013.6
20210731235057 99 139 1.0 4.0 0.00 0.00 0.00 43 1013.6
20210731234630 99 192 1.0 6.0 0.00 0.00 0.00 43 1013.7
20210731234120 99 118 2.0 6.0 0.00 0.00 0.00 44 1013.6
20210731233620 99 133 2.0 4.0 0.00 0.00 0.00 42 1013.7
20210731233132 100 111 1.0 5.0 0.00 0.00 0.00 40 1013.8
20210731232559 100 141 1.0 5.0 0.00 0.00 0.00 40 1013.8
20210731232059 100 152 1.0 4.0 0.00 0.00 0.00 39 1013.8
20210731231602 101 201 1.0 4.0 0.00 0.00 0.00 39 1013.9
20210731231107 100 92 1.0 3.0 0.00 0.00 0.00 39 1013.9
20210731230602 101 115 1.0 6.0 0.00 0.00 0.00 39 1014.0
20210731230056 100 57 3.0 6.0 0.00 0.00 0.00 38 1013.9
20210731225623 101 109 1.0 5.0 0.00 0.00 0.00 38 1014.0
20210731225109 101 132 2.0 5.0 0.00 0.00 0.00 35 1014.1
20210731224558 101 140 1.0 6.0 0.00 0.00 0.00 38 1014.1
20210731224122 101 208 2.0 4.0 0.00 0.00 0.00 37 1014.2
20210731223555 101 155 2.0 4.0 0.00 0.00 0.00 38 1014.3
20210731223118 102 109 2.0 3.0 0.00 0.00 0.00 39 1014.3
20210731222614 102 99 1.0 4.0 0.00 0.00 0.00 38 1014.4
20210731222104 101 262 1.0 5.0 0.00 0.00 0.00 37 1014.4
20210731221611 101 135 2.0 5.0 0.00 0.00 0.00 37 1014.5
20210731221132 101 138 2.0 4.0 0.00 0.00 0.00 38 1014.5
20210731220555 101 344 1.0 5.0 0.00 0.00 0.00 42 1014.5
20210731220102 101 83 2.0 6.0 0.00 0.00 0.00 42 1014.6
20210731215631 101 101 1.0 7.0 0.00 0.00 0.00 43 1014.7
20210731215105 101 88 1.0 8.0 0.00 0.00 0.00 41 1014.7
20210731214607 102 132 2.0 8.0 0.00 0.00 0.00 40 1014.7
20210731214058 102 74 1.0 6.0 0.00 0.00 0.00 41 1014.7
20210731213555 102 144 2.0 6.0 0.00 0.00 0.00 41 1014.9
20210731213121 102 171 2.0 6.0 0.00 0.00 0.00 40 1014.9
20210731212607 102 209 3.0 5.0 0.00 0.00 0.00 40 1015.0
20210731212119 101 286 2.0 3.0 0.00 0.00 0.00 39 1015.0
20210731211605 101 179 1.0 5.0 0.00 0.00 0.00 40 1015.1
20210731211109 100 71 1.0 5.0 0.00 0.00 0.00 41 1015.2
20210731210557 101 94 2.0 7.0 0.00 0.00 0.00 42 1015.2
20210731210055 102 55 2.0 7.0 0.00 0.00 0.00 41 1015.3
20210731205621 102 206 3.0 5.0 0.00 0.00 0.00 41 1015.4
20210731205111 101 139 1.0 7.0 0.00 0.00 0.00 42 1015.4
20210731204559 100 132 3.0 7.0 0.00 0.00 0.00 44 1015.5
20210731204111 101 96 1.0 5.0 0.00 0.00 0.00 40 1015.4
20210731203601 102 260 2.0 9.0 0.00 0.00 0.00 43 1015.6
20210731203110 102 198 3.0 9.0 0.00 0.00 0.00 43 1015.6
20210731202622 102 154 2.0 7.0 0.00 0.00 0.00 42 1015.6
20210731202111 103 92 2.0 7.0 0.00 0.00 0.00 43 1015.6
20210731201626 103 178 3.0 8.0 0.00 0.00 0.00 41 1015.6
20210731201110 102 186 3.0 10.0 0.00 0.00 0.00 43 1015.6
20210731200616 102 273 2.0 6.0 0.00 0.00 0.00 44 1015.6
20210731200109 101 217 2.0 5.0 0.00 0.00 0.00 41 1015.8
20210731195558 102 90 2.0 8.0 0.00 0.00 0.00 42 1015.8
20210731195115 101 107 2.0 8.0 0.00 0.00 0.00 44 1015.9
20210731194556 101 101 1.0 4.0 0.00 0.00 0.00 42 1015.9
20210731194106 102 222 2.0 4.0 0.00 0.00 0.00 40 1016.0
20210731193558 102 205 1.0 5.0 0.00 0.00 0.00 41 1016.0
20210731193113 102 159 1.0 7.0 0.00 0.00 0.00 44 1016.0
20210731192608 102 160 3.0 9.0 0.00 0.00 0.00 44 1016.0
20210731192105 102 223 3.0 9.0 0.00 0.00 0.00 43 1016.1
20210731191610 101 286 1.0 5.0 0.00 0.00 0.00 44 1016.1
20210731191126 101 218 2.0 5.0 0.00 0.00 0.00 44 1016.1
20210731190607 101 215 2.0 4.0 0.00 0.00 0.00 47 1016.2
20210731190057 99 134 2.0 5.0 0.00 0.00 0.00 47 1016.3
20210731185610 98 56 2.0 5.0 0.00 0.00 0.00 47 1016.3
20210731185136 98 196 1.0 3.0 0.00 0.00 0.00 46 1016.5
20210731184557 101 293 1.0 5.0 0.00 0.00 0.00 44 1016.5
20210731184054 101 209 2.0 8.0 0.00 0.00 0.00 45 1016.6
20210731183613 100 190 3.0 9.0 0.00 0.00 0.00 45 1016.6
20210731183059 100 192 6.0 9.0 0.00 0.00 0.00 43 1016.6
20210731182617 100 150 1.0 5.0 0.00 0.00 0.00 50 1016.6
20210731182106 101 232 2.0 7.0 0.00 0.00 0.00 44 1016.7
20210731181617 100 194 2.0 4.0 0.00 0.00 0.00 46 1016.7
20210731181115 100 244 1.0 5.0 0.00 0.00 0.00 45 1016.7
20210731180611 100 232 3.0 6.0 0.00 0.00 0.00 45 1016.8
20210731180103 100 130 2.0 6.0 0.00 0.00 0.00 47 1016.8
20210731175557 100 203 2.0 7.0 0.00 0.00 0.00 48 1016.9
20210731175104 99 194 3.0 7.0 0.00 0.00 0.00 46 1016.9
20210731174600 99 187 3.0 6.0 0.00 0.00 0.00 45 1017.0
20210731174111 100 191 1.0 6.0 0.00 0.00 0.00 46 1017.0
20210731173609 100 267 1.0 5.0 0.00 0.00 0.00 49 1017.0
20210731173055 99 152 2.0 6.0 0.00 0.00 0.00 46 1017.0
20210731172601 99 111 2.0 9.0 0.00 0.00 0.00 46 1017.0
20210731172106 98 128 1.0 9.0 0.00 0.00 0.00 49 1017.1
20210731171601 98 175 4.0 9.0 0.00 0.00 0.00 50 1017.1
20210731171109 99 296 2.0 6.0 0.00 0.00 0.00 50 1017.3
20210731170617 99 250 2.0 4.0 0.00 0.00 0.00 51 1017.3
20210731170128 98 234 2.0 8.0 0.00 0.00 0.00 49 1017.5
20210731165603 97 178 4.0 8.0 0.00 0.00 0.00 50 1017.5
20210731165109 97 220 2.0 5.0 0.00 0.00 0.00 51 1017.6
20210731164640 99 239 1.0 6.0 0.00 0.00 0.00 53 1017.6
20210731164128 98 239 3.0 5.0 0.00 0.00 0.00 53 1017.6
20210731163601 97 216 2.0 6.0 0.00 0.00 0.00 55 1017.5
20210731163115 97 193 2.0 6.0 0.00 0.00 0.00 52 1017.6
20210731162618 97 187 3.0 5.0 0.00 0.00 0.00 52 1017.6
20210731162114 97 220 1.0 6.0 0.00 0.00 0.00 52 1017.7
20210731161601 97 248 2.0 6.0 0.00 0.00 0.00 56 1017.7
20210731161100 96 284 2.0 9.0 0.00 0.00 0.00 54 1017.6
20210731160607 96 229 3.0 9.0 0.00 0.00 0.00 53 1017.7
20210731160119 97 186 2.0 4.0 0.00 0.00 0.00 53 1017.7
20210731155613 96 86 2.0 7.0 0.00 0.00 0.00 55 1017.7